Flag for Germany Weather past 2 weeks in Kiel, Schleswig-Holstein, Germany

Now
79 °F

Sunny.


Feels Like: 80 °F
Forecast: 62 / 75 °F
Wind: 9 mph from Northeast

Location: Kiel / Holtenau Civilian

Current Time: Jul 29, 2014 at 5:13:19 PM

Latest Report: Jul 29, 2014 at 4:20 PM


Visibility: 10 mi

Pressure: 29.83 "Hg

Humidity: 51%

Dew point: 59 °F

Location of KielLocation

Historic Weather in Kiel — Graph

°F

Kiel temperature yesterday

Maximum temperature yesterday: 77 °F (at 2:20 PM)
Minimum temperature yesterday: 68 °F (at 8:20 AM)
Average temperature yesterday: 74 °F

Past Weeks' High & Low Weather Summary

 TemperatureHumidityPressure
High84 °F (Jul 19, 1:50 PM)94% (Jul 26, 8:20 AM)30.21 "Hg (Jul 26, 8:20 AM)
Low63 °F (Jul 15, 8:20 AM)39% (Jul 19, 6:20 PM)29.77 "Hg (Jul 14, 3:20 PM)
Average73 °F65%30.03 "Hg
* Reported Jul 14 3:20 PM — Jul 29 3:50 PM, Kiel, Weather by CustomWeather, © 2014

Note: Actual official high and low records may vary slightly from our data, if they occured in-between our weather recording intervals... More about our weather records

Advertising

Kiel weather history for previous 24 hours

 ConditionsComfort  
Time TempWeatherWind HumidityBarometerVisibility
3:50 PM
Jul 29
79 °FSunny.8 mph54%29.83 "Hg10 mi
3:20 PM77 °FSunny.9 mph57%29.86 "Hg10 mi
2:50 PM77 °FSunny.10 mph54%29.86 "Hg10 mi
2:20 PM79 °FSunny.10 mph51%29.86 "Hg10 mi
1:50 PM77 °FPassing clouds.10 mph57%29.86 "HgN/A
1:20 PM77 °FPassing clouds.12 mph61%29.89 "HgN/A
12:50 PM75 °FSunny.12 mph65%29.89 "Hg10 mi
12:20 PM75 °FPassing clouds.10 mph78%29.89 "HgN/A
11:50 AM75 °FScattered clouds.10 mph74%29.89 "HgN/A
11:20 AM73 °FBroken clouds.10 mph78%29.89 "HgN/A
10:50 AM72 °FPartly sunny.10 mph83%29.89 "HgN/A
10:20 AM72 °FScattered clouds.12 mph83%29.89 "HgN/A
9:50 AM72 °FScattered clouds.12 mph88%29.89 "HgN/A
9:20 AM70 °FMostly cloudy.12 mph88%29.89 "HgN/A
8:50 AM72 °FPartly sunny.12 mph88%29.89 "HgN/A
8:20 AM70 °FScattered clouds.9 mph94%29.89 "HgN/A
5:50 PM
Jul 28
75 °FSunny.8 mph57%29.92 "Hg10 mi
5:20 PM75 °FSunny.8 mph57%29.92 "Hg10 mi
Weather by CustomWeather, © 2014

See weather overviewHow to use our weather pages